Time,TemperatureF,DewpointF,PressureIn,WindDirection,WindDirectionDegrees,WindSpeedMPH,WindSpeedGustMPH,Humidity,HourlyPrecipIn,Conditions,Clouds,dailyrainin,SolarRadiationWatts/m^2,SoftwareType,DateUTC
2013-01-16 00:00:00,20.0,17.0,-100.00,SSW,202,3.0,-999.0,88,-99.99,,,-99.99,0.000000,,2013-01-16 05:00:00,
2013-01-16 00:42:00,20.0,17.0,-100.00,SSW,202,3.0,-999.0,88,-99.99,,,-99.99,0.000000,,2013-01-16 05:42:00,
2013-01-16 00:53:00,20.0,17.0,-100.00,SSW,202,3.0,-999.0,88,-99.99,,,-99.99,0.000000,,2013-01-16 05:53:00,
2013-01-16 01:00:00,20.0,18.0,-100.00,SSW,202,2.0,-999.0,89,-99.99,,,-99.99,0.000000,,2013-01-16 06:00:00,
2013-01-16 01:43:00,20.0,18.0,-100.00,SSW,202,2.0,-999.0,89,-99.99,,,-99.99,0.000000,,2013-01-16 06:43:00,
2013-01-16 01:53:00,20.0,18.0,-100.00,SSW,202,2.0,-999.0,89,-99.99,,,-99.99,0.000000,,2013-01-16 06:53:00,
2013-01-16 02:00:00,19.0,17.0,-100.00,SSW,202,3.0,-999.0,90,-99.99,,,-99.99,0.000000,,2013-01-16 07:00:00,
2013-01-16 02:42:00,19.0,17.0,-100.00,SSW,202,3.0,-999.0,90,-99.99,,,-99.99,0.000000,,2013-01-16 07:42:00,
2013-01-16 02:52:00,19.0,17.0,-100.00,SSW,202,3.0,-999.0,90,-99.99,,,-99.99,0.000000,,2013-01-16 07:52:00,
2013-01-16 03:00:00,18.0,15.0,-100.00,SSW,202,1.0,-999.0,90,-99.99,,,-99.99,0.000000,,2013-01-16 08:00:00,
2013-01-16 03:42:00,18.0,15.0,-100.00,SSW,202,1.0,-999.0,90,-99.99,,,-99.99,0.000000,,2013-01-16 08:42:00,
2013-01-16 03:53:00,18.0,15.0,-100.00,SSW,202,1.0,-999.0,90,-99.99,,,-99.99,0.000000,,2013-01-16 08:53:00,
2013-01-16 04:00:00,17.0,15.0,-100.00,SSW,202,1.0,-999.0,91,-99.99,,,-99.99,0.000000,,2013-01-16 09:00:00,
2013-01-16 04:43:00,17.0,15.0,-100.00,SSW,202,1.0,-999.0,91,-99.99,,,-99.99,0.000000,,2013-01-16 09:43:00,
2013-01-16 04:53:00,17.0,15.0,-100.00,SSW,202,1.0,-999.0,91,-99.99,,,-99.99,0.000000,,2013-01-16 09:53:00,
2013-01-16 05:00:00,18.0,16.0,-100.00,SSW,202,1.0,-999.0,91,-99.99,,,-99.99,0.000000,,2013-01-16 10:00:00,
2013-01-16 05:43:00,18.0,16.0,-100.00,SSW,202,1.0,-999.0,91,-99.99,,,-99.99,0.000000,,2013-01-16 10:43:00,
2013-01-16 05:53:00,18.0,16.0,-100.00,SSW,202,1.0,-999.0,91,-99.99,,,-99.99,0.000000,,2013-01-16 10:53:00,
2013-01-16 06:00:00,20.0,17.0,-100.00,SSW,202,2.0,-999.0,90,-99.99,,,-99.99,0.000000,,2013-01-16 11:00:00,
2013-01-16 06:43:00,20.0,17.0,-100.00,SSW,202,2.0,-999.0,90,-99.99,,,-99.99,0.000000,,2013-01-16 11:43:00,
2013-01-16 06:53:00,20.0,17.0,-100.00,SSW,202,2.0,-999.0,90,-99.99,,,-99.99,0.000000,,2013-01-16 11:53:00,
2013-01-16 07:00:00,19.0,17.0,-100.00,SSW,202,4.0,-999.0,88,-99.99,,,-99.99,0.000000,,2013-01-16 12:00:00,
2013-01-16 07:33:00,19.0,17.0,-100.00,SSW,202,4.0,-999.0,88,-99.99,,,-99.99,0.000000,,2013-01-16 12:33:00,
2013-01-16 07:43:00,19.0,17.0,-100.00,SSW,202,4.0,-999.0,88,-99.99,,,-99.99,0.000000,,2013-01-16 12:43:00,
2013-01-16 07:53:00,19.0,17.0,-100.00,SSW,202,4.0,-999.0,88,-99.99,,,-99.99,0.000000,,2013-01-16 12:53:00,
2013-01-16 08:00:00,20.0,17.0,-100.00,SSW,202,6.0,-999.0,87,-99.99,,,-99.99,0.000000,,2013-01-16 13:00:00,
2013-01-16 08:33:00,20.0,17.0,-100.00,SSW,202,6.0,-999.0,87,-99.99,,,-99.99,0.000000,,2013-01-16 13:33:00,
2013-01-16 08:43:00,20.0,17.0,-100.00,SSW,202,6.0,-999.0,87,-99.99,,,-99.99,0.000000,,2013-01-16 13:43:00,
2013-01-16 08:53:00,20.0,17.0,-100.00,SSW,202,6.0,-999.0,87,-99.99,,,-99.99,0.000000,,2013-01-16 13:53:00,
2013-01-16 09:00:00,21.0,18.0,-100.00,SSW,202,6.0,-999.0,86,-99.99,,,-99.99,35.959999,,2013-01-16 14:00:00,
2013-01-16 09:43:00,21.0,18.0,-100.00,SSW,202,6.0,-999.0,86,-99.99,,,-99.99,35.959999,,2013-01-16 14:43:00,
2013-01-16 09:53:00,21.0,18.0,-100.00,SSW,202,6.0,-999.0,86,-99.99,,,-99.99,35.959999,,2013-01-16 14:53:00,
2013-01-16 10:00:00,24.0,19.0,-100.00,SSW,202,8.0,-999.0,82,-99.99,,,-99.99,169.360001,,2013-01-16 15:00:00,
2013-01-16 10:43:00,24.0,19.0,-100.00,SSW,202,8.0,-999.0,82,-99.99,,,-99.99,169.360001,,2013-01-16 15:43:00,
2013-01-16 10:53:00,24.0,19.0,-100.00,SSW,202,8.0,-999.0,82,-99.99,,,-99.99,169.360001,,2013-01-16 15:53:00,
2013-01-16 11:00:00,27.0,21.0,-100.00,SSW,202,10.0,-999.0,76,-99.99,,,-99.99,293.480011,,2013-01-16 16:00:00,
2013-01-16 11:43:00,27.0,21.0,-100.00,SSW,202,10.0,-999.0,76,-99.99,,,-99.99,293.480011,,2013-01-16 16:43:00,
2013-01-16 11:53:00,27.0,21.0,-100.00,SSW,202,10.0,-999.0,76,-99.99,,,-99.99,293.480011,,2013-01-16 16:53:00,
2013-01-16 12:00:00,29.0,17.0,-100.00,SW,225,11.0,-999.0,60,-99.99,,,-99.99,394.399994,,2013-01-16 17:00:00,
2013-01-16 12:44:00,29.0,17.0,-100.00,SW,225,11.0,-999.0,60,-99.99,,,-99.99,394.399994,,2013-01-16 17:44:00,
2013-01-16 12:53:00,29.0,17.0,-100.00,SW,225,11.0,-999.0,60,-99.99,,,-99.99,394.399994,,2013-01-16 17:53:00,
2013-01-16 13:00:00,32.0,15.0,-100.00,SSW,202,10.0,-999.0,47,-99.99,,,-99.99,447.760010,,2013-01-16 18:00:00,
2013-01-16 13:43:00,32.0,15.0,-100.00,SSW,202,10.0,-999.0,47,-99.99,,,-99.99,447.760010,,2013-01-16 18:43:00,
2013-01-16 13:53:00,32.0,15.0,-100.00,SSW,202,10.0,-999.0,47,-99.99,,,-99.99,447.760010,,2013-01-16 18:53:00,
2013-01-16 14:00:00,34.0,15.0,-100.00,SSE,157,13.0,-999.0,46,-99.99,,,-99.99,416.440002,,2013-01-16 19:00:00,
2013-01-16 14:43:00,34.0,15.0,-100.00,SSE,157,13.0,-999.0,46,-99.99,,,-99.99,416.440002,,2013-01-16 19:43:00,
2013-01-16 14:53:00,34.0,15.0,-100.00,SSE,157,13.0,-999.0,46,-99.99,,,-99.99,416.440002,,2013-01-16 19:53:00,
2013-01-16 15:00:00,34.0,17.0,-100.00,South,180,15.0,-999.0,49,-99.99,,,-99.99,349.160004,,2013-01-16 20:00:00,
2013-01-16 15:43:00,34.0,17.0,-100.00,South,180,15.0,-999.0,49,-99.99,,,-99.99,349.160004,,2013-01-16 20:43:00,
2013-01-16 15:53:00,34.0,17.0,-100.00,South,180,15.0,-999.0,49,-99.99,,,-99.99,349.160004,,2013-01-16 20:53:00,
2013-01-16 16:00:00,34.0,18.0,-100.00,South,180,14.0,-999.0,50,-99.99,,,-99.99,129.919998,,2013-01-16 21:00:00,
2013-01-16 16:43:00,34.0,18.0,-100.00,South,180,14.0,-999.0,50,-99.99,,,-99.99,129.919998,,2013-01-16 21:43:00,
2013-01-16 16:53:00,34.0,18.0,-100.00,South,180,14.0,-999.0,50,-99.99,,,-99.99,129.919998,,2013-01-16 21:53:00,
2013-01-16 17:00:00,34.0,20.0,-100.00,SSW,202,13.0,-999.0,54,-99.99,,,-99.99,31.320000,,2013-01-16 22:00:00,
2013-01-16 17:43:00,34.0,20.0,-100.00,SSW,202,13.0,-999.0,54,-99.99,,,-99.99,31.320000,,2013-01-16 22:43:00,
2013-01-16 17:53:00,34.0,20.0,-100.00,SSW,202,13.0,-999.0,54,-99.99,,,-99.99,31.320000,,2013-01-16 22:53:00,
2013-01-16 18:00:00,34.0,23.0,-100.00,SE,135,13.0,-999.0,64,-99.99,,,-99.99,2.320000,,2013-01-16 23:00:00,
2013-01-16 18:43:00,34.0,23.0,-100.00,SE,135,13.0,-999.0,64,-99.99,,,-99.99,2.320000,,2013-01-16 23:43:00,
2013-01-16 18:53:00,34.0,23.0,-100.00,SE,135,13.0,-999.0,64,-99.99,,,-99.99,2.320000,,2013-01-16 23:53:00,
2013-01-16 19:00:00,34.0,24.0,-100.00,SSW,202,11.0,-999.0,67,-99.99,,,-99.99,0.000000,,2013-01-17 00:00:00,
2013-01-16 19:22:00,34.0,24.0,-100.00,SSW,202,11.0,-999.0,67,-99.99,,,-99.99,0.000000,,2013-01-17 00:22:00,
2013-01-16 19:33:00,34.0,24.0,-100.00,SSW,202,11.0,-999.0,67,-99.99,,,-99.99,0.000000,,2013-01-17 00:33:00,
2013-01-16 19:42:00,34.0,24.0,-100.00,SSW,202,11.0,-999.0,67,-99.99,,,-99.99,0.000000,,2013-01-17 00:42:00,
2013-01-16 19:52:00,34.0,24.0,-100.00,SSW,202,11.0,-999.0,67,-99.99,,,-99.99,0.000000,,2013-01-17 00:52:00,
2013-01-16 20:00:00,34.0,26.0,-100.00,South,180,12.0,-999.0,72,-99.99,,,-99.99,0.000000,,2013-01-17 01:00:00,
2013-01-16 20:33:00,34.0,26.0,-100.00,South,180,12.0,-999.0,72,-99.99,,,-99.99,0.000000,,2013-01-17 01:33:00,
2013-01-16 20:43:00,34.0,26.0,-100.00,South,180,12.0,-999.0,72,-99.99,,,-99.99,0.000000,,2013-01-17 01:43:00,
2013-01-16 20:52:00,34.0,26.0,-100.00,South,180,12.0,-999.0,72,-99.99,,,-99.99,0.000000,,2013-01-17 01:52:00,
2013-01-16 21:00:00,35.0,26.0,-100.00,SW,225,11.0,-999.0,71,-99.99,,,-99.99,0.000000,,2013-01-17 02:00:00,
2013-01-16 22:00:00,35.0,27.0,-100.00,SSW,202,11.0,-999.0,71,-99.99,,,-99.99,0.000000,,2013-01-17 03:00:00,
2013-01-16 22:43:00,35.0,27.0,-100.00,SSW,202,11.0,-999.0,71,-99.99,,,-99.99,0.000000,,2013-01-17 03:43:00,
2013-01-16 22:53:00,35.0,27.0,-100.00,SSW,202,11.0,-999.0,71,-99.99,,,-99.99,0.000000,,2013-01-17 03:53:00,
2013-01-16 23:00:00,35.0,27.0,-100.00,WNW,292,10.0,-999.0,72,-99.99,,,-99.99,0.000000,,2013-01-17 04:00:00,
2013-01-16 23:43:00,35.0,27.0,-100.00,WNW,292,10.0,-999.0,72,-99.99,,,-99.99,0.000000,,2013-01-17 04:43:00,
2013-01-16 23:52:00,35.0,27.0,-100.00,WNW,292,10.0,-999.0,72,-99.99,,,-99.99,0.000000,,2013-01-17 04:52:00,